Suleyman Demirel, Turkey

12:55 AM +03 on April 22, 2018 (GMT +0300)
Suleyman Demirel

Weather History for LTFC - April, 2014

Change the Weather History Date:

Sunday, April 20, 2014

  Actual Average Record
Temperature  
Mean Temperature 48 °F -  
Max Temperature 66 °F - - ()
Min Temperature 31 °F - - ()
Degree Days  
Heating Degree Days 16    
Moisture  
Dew Point 37 °F    
Average Humidity 64    
Maximum Humidity 100    
Minimum Humidity 20    
Precipitation  
Precipitation 0.00 in - - ()
Sea Level Pressure  
Sea Level Pressure 30.01 in    
Wind  
Wind Speed 6 mph ()    
Max Wind Speed 18 mph    
Max Gust Speed -    
Visibility 7.3 miles    
Events      
T = Trace of Precipitation, MM = Missing Value Source: Averaged Metar Reports

Daily Weather History Graph

Daily Weather History Graph

Search for Another Location

Airport or City:

Astronomy

Apr. 20, 2014 Rise Set
Actual Time 6:16 AM EEST 7:38 PM EEST
Civil Twilight 5:49 AM EEST 8:06 PM EEST
Nautical Twilight 5:16 AM EEST 8:39 PM EEST
Astronomical Twilight 4:42 AM EEST 9:13 PM EEST
Moon No Moon Rise 10:18 AM EEST (4/20)
Length of Visible Light 14h 16m
Length of Day
13h 21m
Waning Gibbous, 72% of the Moon is Illuminated
Apr 20
Waning Gibbous
Apr 22
Last Quarter
Apr 29
New
May 7
First Quarter
May 14
Full

Hourly Weather History & Observations

Time (EEST) Temp. Windchill Dew Point Humidity Pressure Visibility Wind Dir Wind Speed Gust Speed Precip Events Conditions
12:00 AM 43 °F - 37 °F 73% 30.06 in 12 mi NNW 6.9 mph - -   Scattered Clouds
12:20 AM 41.0 °F 38.0 °F 37.4 °F 87% 30.06 in 6.2 mi NW 4.6 mph - N/A   Partly Cloudy
12:50 AM 41.0 °F 36.4 °F 37.4 °F 87% 30.06 in 6.2 mi North 6.9 mph - N/A   Partly Cloudy
1:20 AM 41.0 °F 35.2 °F 37.4 °F 87% 30.04 in 6.2 mi NNW 9.2 mph - N/A   Partly Cloudy
1:50 AM 39.2 °F - 35.6 °F 87% 30.04 in 6.2 mi Variable 2.3 mph - N/A   Partly Cloudy
2:20 AM 39.2 °F - 35.6 °F 87% 30.04 in 6.2 mi Variable 2.3 mph - N/A   Partly Cloudy
2:50 AM 37.4 °F 34.9 °F 35.6 °F 93% 30.04 in 6.2 mi North 3.5 mph - N/A   Scattered Clouds
3:00 AM 38 °F - 35 °F 84% 30.07 in 12 mi North 3.5 mph - -   Scattered Clouds
3:20 AM 33.8 °F - 32.0 °F 93% 30.04 in 6.2 mi Variable 2.3 mph - N/A   Scattered Clouds
3:50 AM 37.4 °F - 37.4 °F 100% 30.04 in 6.2 mi Variable 1.2 mph - N/A   Mostly Cloudy
4:50 AM 35.6 °F 30.7 °F 35.6 °F 100% 30.04 in 6.2 mi North 5.8 mph - N/A   Mostly Cloudy
5:20 AM 37.4 °F 33.8 °F 35.6 °F 93% 30.04 in - NW 4.6 mph - N/A   Clear
5:50 AM 33.8 °F - 33.8 °F 100% 30.04 in - Calm Calm - N/A   Clear
6:00 AM 34 °F - 33 °F 96% 30.08 in 12 mi Calm Calm - -   Clear
6:20 AM 33.8 °F - 32.0 °F 93% 30.06 in - Calm Calm - N/A   Clear
6:50 AM 33.8 °F 28.6 °F 33.8 °F 100% 30.06 in - NE 5.8 mph - N/A   Clear
7:20 AM 37.4 °F 32.8 °F 35.6 °F 93% 30.04 in - NW 5.8 mph - N/A   Clear
7:50 AM 41.0 °F 37.1 °F 39.2 °F 93% 30.04 in - NNW 5.8 mph - N/A   Clear
8:20 AM 44.6 °F 43.1 °F 41.0 °F 87% 30.04 in - NE 3.5 mph - N/A   Clear
8:50 AM 46.4 °F 45.2 °F 41.0 °F 81% 30.04 in - WNW 3.5 mph - N/A   Clear
9:00 AM 46 °F - 41 °F 78% 30.08 in 12 mi WNW 3.5 mph - -   Clear
9:20 AM 50.0 °F - 42.8 °F 76% 30.04 in 6.2 mi Variable 2.3 mph - N/A   Mostly Cloudy
9:50 AM 51.8 °F - 44.6 °F 76% 30.04 in 6.2 mi Variable 2.3 mph - N/A   Mostly Cloudy
10:20 AM 53.6 °F - 44.6 °F 72% 30.04 in 6.2 mi Variable 2.3 mph - N/A   Scattered Clouds
10:50 AM 55.4 °F - 46.4 °F 72% 30.04 in 6.2 mi Variable 2.3 mph - N/A   Partly Cloudy
11:20 AM 57.2 °F - 41.0 °F 55% 30.04 in 6.2 mi Variable 4.6 mph - N/A   Scattered Clouds
11:50 AM 59.0 °F - 39.2 °F 48% 30.01 in 6.2 mi Variable 2.3 mph - N/A   Mostly Cloudy
12:00 PM 58 °F - 40 °F 40% 30.01 in 12 mi SSW 2.3 mph - -   Scattered Clouds
12:20 PM 60.8 °F - 30.2 °F 31% 30.01 in 6.2 mi SW 4.6 mph - N/A   Scattered Clouds
12:50 PM 62.6 °F - 26.6 °F 26% 30.01 in 6.2 mi SSW 6.9 mph - N/A   Mostly Cloudy
1:20 PM 62.6 °F - 24.8 °F 24% 29.98 in 6.2 mi WSW 8.1 mph - N/A   Mostly Cloudy
1:50 PM 64.4 °F - 32.0 °F 30% 29.98 in 6.2 mi WSW 9.2 mph - N/A   Partly Cloudy
2:20 PM 64.4 °F - 28.4 °F 26% 29.98 in 6.2 mi WSW 10.4 mph - N/A   Partly Cloudy
2:50 PM 66.2 °F - 26.6 °F 23% 29.95 in 6.2 mi SW 10.4 mph - N/A   Partly Cloudy
3:00 PM 66 °F - 34 °F 20% 29.94 in 12 mi SW 10.4 mph - -   Scattered Clouds
3:20 PM 64.4 °F - 35.6 °F 34% 29.95 in 6.2 mi Variable 10.4 mph - N/A   Partly Cloudy
3:50 PM 64.4 °F - 35.6 °F 34% 29.95 in 6.2 mi NW 10.4 mph - N/A   Partly Cloudy
4:20 PM 66.2 °F - 35.6 °F 32% 29.92 in 6.2 mi NW 11.5 mph - N/A   Partly Cloudy
5:20 PM 64.4 °F - 39.2 °F 40% 29.92 in 6.2 mi NNW 18.4 mph - N/A   Partly Cloudy
5:50 PM 62.6 °F - 37.4 °F 39% 29.92 in 6.2 mi NW 18.4 mph - N/A   Partly Cloudy
6:00 PM 63 °F - 37 °F 26% 29.94 in 12 mi NW 18.4 mph - -   Scattered Clouds
6:20 PM 62.6 °F - 37.4 °F 39% 29.92 in 6.2 mi NNW 18.4 mph - N/A   Partly Cloudy
6:50 PM 60.8 °F - 37.4 °F 42% 29.95 in 6.2 mi NW 18.4 mph - N/A   Partly Cloudy
7:20 PM 59.0 °F - 37.4 °F 45% 29.95 in 6.2 mi NNW 17.3 mph - N/A   Partly Cloudy
7:50 PM 57.2 °F - 37.4 °F 48% 29.95 in 6.2 mi NNW 16.1 mph - N/A   Partly Cloudy
8:20 PM 55.4 °F - 37.4 °F 51% 29.98 in 6.2 mi North 11.5 mph - N/A   Scattered Clouds
8:50 PM 55.4 °F - 41.0 °F 58% 29.98 in 6.2 mi NNW 15.0 mph - N/A   Scattered Clouds
9:00 PM 55 °F - 40 °F 45% 29.96 in 12 mi NNW 15.0 mph - -   Scattered Clouds
9:20 PM 53.6 °F - 41.0 °F 62% 29.98 in 6.2 mi NNW 8.1 mph - N/A   Partly Cloudy
9:50 PM 53.6 °F - 41.0 °F 62% 30.01 in - NNW 9.2 mph - N/A   Clear
10:20 PM 51.8 °F - 39.2 °F 62% 29.98 in - North 8.1 mph - N/A   Clear
10:50 PM 51.8 °F - 41.0 °F 67% 30.01 in - NNW 9.2 mph - N/A   Clear
11:20 PM 50.0 °F - 41.0 °F 71% 30.01 in - NNW 10.4 mph - N/A   Clear
11:50 PM 51.8 °F - 41.0 °F 67% 30.01 in - NNW 6.9 mph - N/A   Clear